Regional Weather Roundup
Issued by NWS

Home | Current Version | Previous Version | Text Only | Print | Product List | Glossary Off
Versions: 1 2 3 4 5 6 7 8 9 10 11 12 13 14 15 16 17 18 19 20 21 22 23 24 25 26 27 28 29 30 31 32 33 34 35 36 37 38 39 40 41 42 43 44 45 46 47 48 49 50

000
ASUS43 KDTX 160210
RWRMI
MICHIGAN HOURLY REGIONAL WEATHER ROUNDUP
NATIONAL WEATHER SERVICE DETROIT/PONTIAC MI
900 PM EST FRI DEC 15 2017

NOTE: "FAIR" INDICATES FEW OR NO CLOUDS BELOW 12,000 FEET WITH NO
SIGNIFICANT WEATHER AND/OR OBSTRUCTION TO VISIBILITY.

MIZ047>049-052>055-059>063-066>070-074>076-081>083-160300-
SOUTHEAST LOWER MICHIGAN

CITY           SKY/WX    TMP DP  RH WIND       PRES   REMARKS
ALMA           CLEAR     20  17  86 SW3       29.86S
ANN ARBOR      CLOUDY    25  16  68 S9        29.90R WCI  15
BAD AXE        CLEAR     16   9  73 W8        29.82R WCI   6
CARO           CLOUDY    22  15  75 SW10      29.84R WCI  11
DETROIT CITY   CLOUDY    26  15  63 SW10      29.90R WCI  16
DETROIT        CLOUDY    29  17  61 SW15      29.91R WCI  18
FLINT          MOCLDY    20  17  88 SW6       29.87R WCI  12
GROSSE ILE     CLOUDY    27  18  70 SW9       29.91R WCI  17
HILLSDALE      FLURRIES  27  19  74 SW10G16   29.88S WCI  17
HOWELL         CLOUDY    22  16  77 SW6       29.87R WCI  15

CITY           SKY/WX    TMP DP  RH WIND       PRES   REMARKS
JACKSON        CLOUDY    26  18  71 S9        29.88S WCI  17
LAMBERTVILLE   CLOUDY    27  18  69 SW12      29.93S WCI  16
LANSING        CLOUDY    23  16  74 SW6       29.88R WCI  16
LAPEER         CLOUDY    23  17  78 W6        29.85R WCI  15
MASON          CLOUDY    23  13  66 CALM      29.88R
MONROE         CLOUDY    26  16  65 SW12      29.92R WCI  16
MT. CLEMENS    FLURRIES  25  21  86 W7        29.86R WCI  17
PONTIAC        FLURRIES  21  18  88 SW7       29.85R WCI  12
PORT HOPE        N/A     22  14  71 W8        29.79R WCI  12
PORT HURON     CLOUDY    23  14  68 W3        29.87R
TRI CITIES     CLOUDY    22  18  85 W10       29.86R WCI  11
MIDLAND        FLURRIES  23  16  73 W8        29.85R WCI  14
TROY           MOCLDY    25  17  72 SW5       29.90R WCI  20
SAGINAW HB     CLOUDY    23  19  86 W7        29.86R WCI  15
$$
MIZ043>046-050>051-056>058-064>065-071>073-077>080-160300-
SOUTHWEST LOWER MICHIGAN

CITY           SKY/WX    TMP DP  RH WIND       PRES   REMARKS
BATTLE CREEK   FLURRIES  26  21  81 SW10      29.87S WCI  16
BENTON HARBOR  FLURRIES  34  25  69 W17       29.91R WCI  23
BIG RAPIDS     CLOUDY    18  15  91 CALM      29.83R
COLDWATER      FLURRIES  29  21  74 SW14G20   29.90S WCI  18
HOLLAND        CLOUDY    33  22  63 W15G22    29.87R WCI  23
GRAND RAPIDS   CLOUDY    24  18  77 S6        29.86S WCI  17
IONIA          CLOUDY    21  15  75 SW5       29.86S WCI  15
KALAMAZOO      LGT SNOW  29  23  78 SW10      29.89R WCI  20
LUDINGTON      CLOUDY    24  14  65 NW6       29.84F WCI  17
MARSHALL       FLURRIES  26  20  79 SW5       29.88S WCI  20
MOUNT PLEASANT FLURRIES  22  17  81 CALM      29.84R
MUSKEGON       CLOUDY    31  22  69 NW9       29.86S WCI  23
SOUTH HAVEN    CLOUDY    35  26  68 W14G22    29.89S WCI  26
$$
MIZ016>042-160300-
NORTHERN LOWER MICHIGAN

CITY           SKY/WX    TMP DP  RH WIND       PRES   REMARKS
ALPENA         CLOUDY    22  18  85 W7        29.76R WCI  13
BEAVER ISLAND  MOCLDY    22  10  60 NW12      29.79R WCI  11
BELLAIRE       CLOUDY    24  20  87 W7        29.80R WCI  16
CADILLAC       FLURRIES  18  14  84 W7        29.78R WCI   9
CHARLEVOIX     LGT SNOW  24  15  67 W15       29.80R WCI  12
FRANKFORT      CLOUDY    24  15  66 W10       29.84R WCI  14
GAYLORD        LGT SNOW  19  15  84 W6        29.73R FOG     WCI  11
GRAYLING       MOCLDY    18  13  80 W8        29.76R WCI   8
HARBOR SPRINGS CLOUDY    22  11  63 NW8       29.76R WCI  12
HOUGHTON LAKE  CLOUDY    18  13  80 W9        29.79R WCI   7
MANISTEE       CLOUDY    22  14  71 W12       29.84R WCI  10
OSCODA         CLOUDY    20  13  75 W13       29.78R WCI   7
PELLSTON       CLOUDY    21  11  65 NW13      29.77R WCI   9
ROGERS CITY    CLOUDY    21  17  83 W6        29.76R WCI  14
TRAVERSE CITY  FLURRIES  22  15  75 SW5       29.81R WCI  16
$$
MIZ007>008-015-160300-
EASTERN UPPER MICHIGAN

CITY           SKY/WX    TMP DP  RH WIND       PRES   REMARKS
KINROSS        FLURRIES  16  14  93 W7        29.75R WCI   6
MACKINAC ISLAN MOCLDY    21  14  75 NW8G21    29.76R WCI  11
NEWBERRY       LGT SNOW  15  14  96 W7        29.76R WCI   5
S. S. MARIE    CLOUDY    20   9  62 NW12G24   29.73R WCI   8
MUNISING         N/A     17  15  92 W6        29.79R WCI   9
$$
MIZ004>006-011>014-085-160300-
CENTRAL UPPER MICHIGAN

CITY           SKY/WX    TMP DP  RH WIND       PRES   REMARKS
MANISTIQUE     CLEAR     10   1  67 W7        29.79R WCI  -2
ESCANABA       CLOUDY    11   7  84 W7        29.84R WCI   0
MENOMINEE      CLOUDY    12   6  77 CALM      29.86S
SAWYER-GWINN   PTCLDY     9   5  85 W7        29.78R WCI  -3
$$
MIZ001>003-009>011-084-160300-
WESTERN UPPER MICHIGAN

CITY           SKY/WX    TMP DP  RH WIND       PRES   REMARKS
IRON MOUNTAIN  CLOUDY    13   5  70 W5        29.79R WCI   5
HOUGHTON       LGT SNOW  13   8  81 SW3       29.76S
COPPER HARBOR    N/A     18  10  71 N9        29.80R WCI   7
IRONWOOD       CLOUDY     4   1  88 E3        29.78F
$$

ABBREVIATIONS USED IN REMARKS
   TC - TEMPERATURE IN CELSIUS
  WCI - WIND CHILL INDEX
   HX - HEAT INDEX
  VSB - VISIBILITY





USA.gov is the U.S. government's official web portal to all federal, state and local government web resources and services.